Location: Brno
(49.2000°N, 16.6330°E)
Time: 02:23:56
(UTC+02:00)

Vanguard 3 - Pass Details

Date: 31 July 2021
Orbit: 510 x 3260 km, 33.3° (Epoch: 19 September)

Event Time Altitude Azimuth Distance (km) Brightness Sun altitude
Rises 23:31:18 0° 271° (W) 6,919 12.2 -19.9°
Reaches altitude 10° 23:36:17 10° 264° (W) 6,079 11.7 -20.3°
Maximum altitude 23:52:53 36° 207° (SSW) 4,283 10.4 -21.1°
Enters shadow 00:00:26 27° 171° (S) 4,493 10.3 -21.5°
Drops below altitude 10° 00:07:28 10° 149° (SSE) 5,330 - -21.8°
Sets 00:11:32 0° 141° (SE) 6,011 - -21.9°
